909  
ASUS41 KPHI 070914  
RWRPHI  
 
REGIONAL WEATHER ROUNDUP  
NATIONAL WEATHER SERVICE MOUNT HOLLY NJ  
500 AM EDT THU JUL 07 2022  
 
NOTE: "FAIR" INDICATES FEW OR NO CLOUDS BELOW 12,000 FEET WITH NO  
SIGNIFICANT WEATHER AND/OR S TO VISIBILITY
.  
 
* = STATION DOES NOT REPORT PRECIPITATION (E.G. RAIN, SNOW, ETC.)  
OR FOG.
 
 
NJZ015>026-071000-  
SOUTHERN NEW JERSEY  
 
CITY SKY/WX TMP DP RH WIND PRES REMARKS
 
POMONA RAIN 73 70 90 W6 29.94R  
WILDWOOD* CLOUDY 73 71 93 N8 29.92R  
MILLVILLE LGT RAIN 72 68 87 NE6 29.93R  
WRIGHTSTOWN LGT RAIN 70 67 90 S5 29.94R  
MOUNT HOLLY LGT RAIN 72 69 90 CALM 29.95R FOG  
TRENTON CLOUDY 73 63 70 NE8 29.94R  
 

 
NJZ001>014-071000-  
NORTHERN NEW JERSEY  
 
CITY SKY/WX TMP DP RH WIND PRES REMARKS
 
SUSSEX CLOUDY 69 61 75 NE5 30.00R  
ANDOVER* N/A 70 62 76 NE6 29.99R  
MORRISTOWN CLOUDY 70 61 73 NE6 29.97R  
NEWARK MOCLDY 77 63 61 VRB7 29.96R  
TETERBORO CLOUDY 73 61 65 NE6 29.96R  
CALDWELL CLOUDY 73 58 59 NE5 29.98R  
SOMERVILLE CLOUDY 74 61 63 NE3 29.94S  
ALLAIRE* CLOUDY 72 72 100 E10 29.96R  
 

 
PAZ043-044-047-054-055-060>062-066>071-071000-  
EASTERN PENNSYLVANIA  
 
CITY SKY/WX TMP DP RH WIND PRES REMARKS
 
PHILADELPHIA RAIN 71 69 93 E3 29.95R FOG  
NORTH PHILA LGT RAIN 72 67 84 S5 29.96R  
BLUE BELL* LGT RAIN 71 68 91 SE5 29.95R  
DOYLESTOWN CLOUDY 73 62 68 CALM 29.95R  
QUAKERTOWN* MOCLDY 72 64 78 CALM 29.96S  
PERKASIE* CLOUDY 72 66 83 E7 29.97S  
POTTSTOWN LGT RAIN 71 63 75 CALM 29.97R  
LANCASTER LGT RAIN 70 66 87 SW5 29.96R  
COATESVILLE RAIN 66 66 100 SE7 29.98R  
WEST CHESTER DRIZZLE 68 64 88 CALM 29.96R  
READING LGT RAIN 73 66 78 NE5 29.94R  
ALLENTOWN CLOUDY 71 62 73 NE7 29.96R  
QN CITY/ALNTWN CLOUDY 72 63 73 NE6 29.97R  
MOUNT POCONO CLOUDY 65 56 72 NE6 30.03R  
HAZLETON CLOUDY 68 59 73 CALM 30.04R  
LEHIGHTON CLOUDY 68 61 77 CALM 29.98S  
WILKES BARRE CLOUDY 65 60 84 E3 30.00S  
 

 
DEZALL-MDZ008-012-015-019-020-071000-  
DELAWARE AND EASTERN MARYLAND  
 
CITY SKY/WX TMP DP RH WIND PRES REMARKS
 
WILMINGTON LGT RAIN 71 69 93 NE8 29.93S  
DOVER HVY RAIN 72 72 100 NE15 29.90S  
CHESWOLD CLOUDY 72 70 94 CALM 29.94R FOG  
GEORGETOWN CLOUDY 76 72 87 SE6 29.89S  
OCEAN CITY CLOUDY 71 70 96 SE6 29.90S  
WALLOPS ISLAND MOCLDY 75 72 90 SE7 29.89S  
SALISBURY MOCLDY 75 73 93 CALM 29.88F  
 

 
PAZ001-021-NYZ056-072-MDZ011-DCZ001-071000-  
OTHER NEARBY LOCATIONS  
 
CITY SKY/WX TMP DP RH WIND PRES REMARKS
 
HARRISBURG CLOUDY 69 65 86 NE3 29.95S  
STATE COLLEGE CLOUDY 67 61 81 NE6 30.01R  
WILLIAMSPORT CLOUDY 68 59 73 NW3 29.98R  
BINGHAMTON CLEAR 56 55 97 E6 30.02S  
NEW YORK CITY CLOUDY 73 62 68 VRB3 30.00R  
BALTIMORE CLOUDY 76 73 91 NE5 29.91R  
WASHINGTON DC CLOUDY 77 72 84 N12 29.90S  
 

 
 
 
CLICK HERE TO GO TO PREVIOUS BULLETINS.

The Nexlab PA Page
The Nexlab NJ Page
The Nexlab DE Page
The Nexlab MD Page Main Text Page